User: anonymous   Login
Location: Vancouver
(49.2500°N, 123.1330°W)
Time: 05:52:47
(UTC-08:00)
Language:

H-2A R/B - Orbit

View from above orbital plane
View from above orbital plane
View from above satellite
View from above satellite

Ground track
Ground track

The orbit data is extracted from the following two-line orbital elements,

1 27601U 02056E   17053.23600721  .00000030  00000-0  26535-4 0  9994
2 27601  98.3898 124.9369 0071007 276.3002 150.9917 14.31764002741363
Epoch (UTC): 22 February 2017 05:39:51
Eccentricity: 0.0071007
inclination: 98.3898°
perigee height: 735 km
apogee height: 837 km
right ascension of ascending node: 124.9369°
argument of perigee: 276.3002°
revolutions per day: 14.31764002
mean anomaly at epoch: 150.9917°
orbit number at epoch: 74136

The dashed part of the orbit path shows where the satellite is in the earth's shadow,  

DLR